FENGYUN 1C DEB

Satellite information

Favourite Embed

Satellite Type and Status

DEBRISIN ORBIT

Key statistics

Satellite FENGYUN 1C DEB at a glance.

Uptime

9659

Days in orbit

Revolutions

≈ 14.3

Per day

Orbit

SSO

Sun Synchronous Orbit

Inclination

98.9

Latest

Satellite identification and parameters

Extended collection of information and parameters for FENGYUN 1C DEB.

Object identification

Identified? True

Debris? True

Object name: FENGYUN 1C DEB

International designator: 1999-025ZA

Object number (NORAD): 30289

Object ID (CCSDS): 30289

Country: PEOPLES REPUBLIC OF CHINA (PRC)

Current information (Y/N): Y

RCS size: SMALL

Orbital parameters

Period: 101.046 minutes

Inclination: 98.9276 deg

SMA: 7186.302 km

Apoapsis: 837.347 km

Periapsis: 778.987 km

RAAN: 26.4761 deg

Eccentricy: 0.00406047

Argument of periapsis: 133.9493 deg

Mean anomaly: 281.8222 deg

Mean motion: 14.25097461 rev/day

Mean motion (dot): 0.00007905 rev/day2

B* drag term: 0.0033579477 1/REarth

Two-line elements (TLE)

Creation date: Oct. 18, 2025, 2:17 a.m.

Reference frame: TEME

Reference center: EARTH

Epoch: Oct. 17, 2025, 11:26 p.m. UTC

TLE line 0: 0 FENGYUN 1C DEB

TLE line 1: 1 30289U 99025ZA 25290.97683436 .00007905 00000-0 33579-2 0 9991

TLE line 2: 2 30289 98.9276 26.4761 0040605 133.9493 281.8222 14.25097461962874

Live tracking on map

Real-time ground track for satellite FENGYUN 1C DEB.

In-orbit conjunctions

A list of the most updated potential collisions computed for object FENGYUN 1C DEB.

Target Orbit TCA Probability of collision Miss distance Type
THORAD AGENA D DEB LEO 2025-10-11 21:12:19 0.0001334222 317.0 (m) DEBRIS
DMSP 5D-2 F13 DEB SSO 2025-07-04 17:26:03 0.0001071417 722.0 (m) DEBRIS
FENGYUN 1C DEB SSO 2024-11-09 15:58:52 0.000236085 739.0 (m) DEBRIS

Associated space launch

Chinese polar orbiting meteorological satellite

FENGYUN 1C DEB was lifted into orbit during the mission ‘Long March 4B | Feng Yun 1C’, on board a Long March 4B space rocket.

The launch took place on May 10, 1999, 1:33 a.m. from Launch Complex 7.

For more information about the launch, click the button.

Launch to space Long March 4B | Feng Yun 1C
Long March 4B | Feng Yun 1C

Agency: N/A

Status: Launch Successful

Launch date: May 10, 1999, 1:33 a.m. UTC

Rocket: Long March 4B

Launch pad: Launch Complex 7

Location: Taiyuan Satellite Launch Center, People's Republic of China

...

Latest news about this satellite

There are no fresh news available about this satellite. Check back as we update our databases every day.


Newsletter sign-up

Weekly statistics, charts and insights to help you stay on top of the space industry.